Simultaneous Nadir Overpasses (SNOs) Predictions

Prediction of SNOs between AQUA and GOES-15 Satellite Orbit:

Table of predicted SNOs for the next 14.0 days since TLE Epoch: 8/22/2020
Index Date Time (AQUA) AQUA Lat,Lon GOES-15 Lat,Lon Distance(km) Time Diff (sec)
1 08/22/2020 10:07:16 -0.03,-127.89 -0.05,-127.83 7.31 80
2 08/24/2020 09:55:05 -0.67,-124.94 -0.05,-127.75 320.35 80
3 08/24/2020 22:16:29 -0.47,-130.12 0.05,-127.69 277.15 80
4 08/26/2020 22:04:18 0.17,-127.17 0.05,-127.60 49.73 80
5 08/28/2020 21:52:06 0.76,-124.21 0.06,-127.51 375.96 80
6 08/29/2020 10:13:21 0.34,-129.36 -0.06,-127.53 208.25 80
7 08/31/2020 10:01:10 -0.31,-126.41 -0.07,-127.44 117.90 80
8 08/31/2020 22:22:34 -0.83,-131.60 0.07,-127.38 480.02 80
9 09/02/2020 09:48:58 -0.90,-123.45 -0.07,-127.35 444.05 80
10 09/02/2020 22:10:22 -0.24,-128.63 0.07,-127.28 153.86 80
11 09/04/2020 21:58:11 0.42,-125.68 0.07,-127.19 172.23 80
